カタログに戻る

CZ-6A DEB

運用中PO
NORAD 61825·DEBRIS·🇨🇳 China

打ち上げ Aug 6, 2024 から Taiyuan Satellite Launch Center

Loading…

次のパス (今後24時間)

TLE

最新Source: Space-Track

元期: Sep 14, 2026, 00:03 UTC

1 61825U 24140ACR 26257.00228566  .00001496  00000-0  62383-3 0  9999
2 61825  89.0013 264.6216 0037025 252.9182 106.7954 14.25449461104252

AllMySatでCZ-6A DEBをリアルタイム追跡

Download on the App Store